When you browse on this site, cookies collect data to enhance your experience and personalize the content and advertising you see.
Visit our Privacy Policy to learn more. By continuing to use the site, you agree to this use of cookies and data.

Stündliche Wetter Kashtelu-Branku

Heute, 15 Juli, Mittwoch

Zeit Temperatur Niederschläge Wind Luftdruck Luftfeuchtigkeit
00:00 +24°C° 0 mm 2 m/S 728 mmHg 32%
01:00 +24°C° 0 mm 2 m/S 728 mmHg 33%
02:00 +23°C° 0 mm 2 m/S 728 mmHg 34%
03:00 +22°C° 0 mm 3 m/S 728 mmHg 35%
04:00 +21°C° 0 mm 3 m/S 728 mmHg 37%
05:00 +21°C° 0 mm 3 m/S 728 mmHg 40%
06:00 +20°C° 0 mm 3 m/S 728 mmHg 42%
07:00 +22°C° 0 mm 4 m/S 729 mmHg 38%
08:00 +26°C° 0 mm 4 m/S 729 mmHg 33%
09:00 +28°C° 0 mm 5 m/S 730 mmHg 29%
10:00 +30°C° 0 mm 4 m/S 730 mmHg 26%
11:00 +34°C° 0 mm 4 m/S 730 mmHg 23%
12:00 +36°C° 0 mm 3 m/S 730 mmHg 20%
13:00 +37°C° 0 mm 3 m/S 730 mmHg 18%
14:00 +38°C° 0 mm 2 m/S 730 mmHg 16%
15:00 +39°C° 0 mm 2 m/S 729 mmHg 14%
16:00 +39°C° 0 mm 2 m/S 729 mmHg 14%
17:00 +39°C° 0 mm 2 m/S 729 mmHg 14%
18:00 +38°C° 0 mm 2 m/S 728 mmHg 14%
19:00 +36°C° 0 mm 2 m/S 728 mmHg 18%
20:00 +32°C° 0 mm 2 m/S 729 mmHg 21%
21:00 +29°C° 0 mm 3 m/S 729 mmHg 24%
22:00 +28°C° 0 mm 3 m/S 729 mmHg 28%
23:00 +27°C° 0 mm 2 m/S 729 mmHg 32%

Morgen, 16 Juli, Donnerstag

Zeit Temperatur Niederschläge Wind Luftdruck Luftfeuchtigkeit
00:00 +26°C° 0 mm 2 m/S 729 mmHg 37%
01:00 +25°C° 0 mm 2 m/S 729 mmHg 38%
02:00 +25°C° 0 mm 2 m/S 729 mmHg 40%
03:00 +24°C° 0 mm 2 m/S 729 mmHg 42%
04:00 +24°C° 0 mm 3 m/S 729 mmHg 42%
05:00 +24°C° 0 mm 3 m/S 729 mmHg 43%
06:00 +24°C° 0 mm 3 m/S 729 mmHg 43%
07:00 +26°C° 0 mm 3 m/S 730 mmHg 38%
08:00 +29°C° 0 mm 3 m/S 730 mmHg 34%
09:00 +32°C° 0 mm 4 m/S 731 mmHg 29%
10:00 +34°C° 0 mm 3 m/S 731 mmHg 26%
11:00 +37°C° 0 mm 3 m/S 731 mmHg 24%
12:00 +39°C° 0 mm 2 m/S 731 mmHg 21%
13:00 +40°C° 0 mm 2 m/S 730 mmHg 19%
14:00 +41°C° 0 mm 2 m/S 730 mmHg 17%
15:00 +43°C° 0 mm 1 m/S 729 mmHg 15%
16:00 +42°C° 0 mm 1 m/S 729 mmHg 16%
17:00 +41°C° 0 mm 2 m/S 729 mmHg 16%
18:00 +40°C° 0 mm 2 m/S 728 mmHg 17%
19:00 +38°C° 0 mm 2 m/S 728 mmHg 20%
20:00 +35°C° 0 mm 2 m/S 728 mmHg 24%
21:00 +31°C° 0 mm 2 m/S 729 mmHg 28%
22:00 +30°C° 0 mm 2 m/S 729 mmHg 28%
23:00 +29°C° 0 mm 2 m/S 729 mmHg 29%

übermorgen, 17 Juli, Freitag

Zeit Temperatur Niederschläge Wind Luftdruck Luftfeuchtigkeit
00:00 +28°C° 0 mm 2 m/S 729 mmHg 30%
01:00 +27°C° 0 mm 2 m/S 728 mmHg 31%
02:00 +27°C° 0 mm 2 m/S 728 mmHg 32%
03:00 +26°C° 0 mm 2 m/S 728 mmHg 33%
04:00 +26°C° 0 mm 2 m/S 728 mmHg 35%
05:00 +25°C° 0 mm 2 m/S 729 mmHg 36%
06:00 +25°C° 0 mm 2 m/S 729 mmHg 38%
07:00 +27°C° 0 mm 2 m/S 729 mmHg 33%
08:00 +30°C° 0 mm 3 m/S 729 mmHg 29%
09:00 +33°C° 0 mm 3 m/S 730 mmHg 24%
10:00 +35°C° 0 mm 3 m/S 730 mmHg 22%
11:00 +38°C° 0 mm 2 m/S 729 mmHg 20%
12:00 +40°C° 0 mm 2 m/S 729 mmHg 17%
13:00 +41°C° 0 mm 2 m/S 729 mmHg 16%
14:00 +42°C° 0 mm 2 m/S 729 mmHg 15%
15:00 +43°C° 0 mm 1 m/S 728 mmHg 13%
16:00 +43°C° 0 mm 2 m/S 728 mmHg 14%
17:00 +42°C° 0 mm 2 m/S 728 mmHg 14%
18:00 +41°C° 0 mm 2 m/S 727 mmHg 14%
19:00 +38°C° 0 mm 2 m/S 728 mmHg 17%
20:00 +35°C° 0 mm 2 m/S 728 mmHg 20%
21:00 +31°C° 0 mm 2 m/S 728 mmHg 23%
22:00 +30°C° 0 mm 2 m/S 728 mmHg 23%
23:00 +28°C° 0 mm 2 m/S 728 mmHg 22%

18 Juli, Samstag

Zeit Temperatur Niederschläge Wind Luftdruck Luftfeuchtigkeit
00:00 +27°C° 0 mm 2 m/S 728 mmHg 21%
01:00 +26°C° 0 mm 2 m/S 728 mmHg 23%
02:00 +26°C° 0 mm 2 m/S 728 mmHg 24%
03:00 +25°C° 0 mm 2 m/S 728 mmHg 25%
04:00 +25°C° 0 mm 2 m/S 728 mmHg 27%
05:00 +24°C° 0 mm 2 m/S 728 mmHg 29%
06:00 +24°C° 0 mm 2 m/S 728 mmHg 31%
07:00 +27°C° 0 mm 3 m/S 729 mmHg 27%
08:00 +29°C° 0 mm 3 m/S 729 mmHg 24%
09:00 +33°C° 0 mm 3 m/S 729 mmHg 20%
10:00 +36°C° 0 mm 3 m/S 729 mmHg 18%
11:00 +38°C° 0 mm 2 m/S 729 mmHg 16%
12:00 +41°C° 0 mm 2 m/S 729 mmHg 14%
13:00 +42°C° 0 mm 2 m/S 729 mmHg 13%
14:00 +43°C° 0 mm 2 m/S 728 mmHg 13%
15:00 +45°C° 0 mm 2 m/S 728 mmHg 13%
16:00 +43°C° 0 mm 3 m/S 728 mmHg 14%
17:00 +42°C° 0 mm 3 m/S 728 mmHg 15%
18:00 +41°C° 0 mm 4 m/S 727 mmHg 17%
19:00 +37°C° 0 mm 4 m/S 728 mmHg 23%
20:00 +33°C° 0 mm 3 m/S 728 mmHg 29%
21:00 +29°C° 0 mm 2 m/S 728 mmHg 35%
22:00 +28°C° 0 mm 2 m/S 728 mmHg 37%
23:00 +27°C° 0 mm 2 m/S 728 mmHg 39%

19 Juli, Sonntag

Zeit Temperatur Niederschläge Wind Luftdruck Luftfeuchtigkeit
00:00 +25°C° 0 mm 1 m/S 728 mmHg 41%
01:00 +25°C° 0 mm 1 m/S 728 mmHg 44%
02:00 +24°C° 0 mm 1 m/S 728 mmHg 46%
03:00 +23°C° 0 mm 1 m/S 728 mmHg 48%
04:00 +22°C° 0 mm 1 m/S 728 mmHg 52%
05:00 +22°C° 0 mm 1 m/S 728 mmHg 57%
06:00 +21°C° 0 mm 1 m/S 728 mmHg 61%
07:00 +24°C° 0 mm 1 m/S 728 mmHg 53%
08:00 +26°C° 0 mm 1 m/S 729 mmHg 45%
09:00 +29°C° 0 mm 2 m/S 729 mmHg 37%
10:00 +31°C° 0 mm 2 m/S 729 mmHg 30%
11:00 +34°C° 0 mm 3 m/S 729 mmHg 23%
12:00 +37°C° 0 mm 3 m/S 729 mmHg 16%
13:00 +38°C° 0 mm 3 m/S 729 mmHg 15%
14:00 +38°C° 0 mm 4 m/S 729 mmHg 13%
15:00 +40°C° 0 mm 4 m/S 729 mmHg 12%
16:00 +38°C° 0 mm 4 m/S 729 mmHg 14%
17:00 +37°C° 0 mm 4 m/S 729 mmHg 16%
18:00 +36°C° 0 mm 5 m/S 728 mmHg 18%
19:00 +33°C° 0 mm 4 m/S 729 mmHg 29%
20:00 +29°C° 0 mm 3 m/S 729 mmHg 39%
21:00 +26°C° 0 mm 2 m/S 729 mmHg 49%
22:00 +25°C° 0 mm 2 m/S 729 mmHg 52%
23:00 +24°C° 0 mm 1 m/S 729 mmHg 55%

20 Juli, Montag

Zeit Temperatur Niederschläge Wind Luftdruck Luftfeuchtigkeit
00:00 +22°C° 0 mm 1 m/S 729 mmHg 58%
01:00 +22°C° 0 mm 1 m/S 728 mmHg 58%
02:00 +19°C° 0 mm 0 m/S 728 mmHg 58%
03:00 +19°C° 0 mm 0 m/S 728 mmHg 58%
04:00 +19°C° 0 mm 0 m/S 728 mmHg 58%
05:00 +19°C° 0 mm 0 m/S 728 mmHg 58%
06:00 +19°C° 0 mm 0 m/S 728 mmHg 58%
07:00 +22°C° 0 mm 0 m/S 728 mmHg 49%
08:00 +26°C° 0 mm 0 m/S 729 mmHg 39%
09:00 +32°C° 0 mm 1 m/S 729 mmHg 29%
10:00 +34°C° 0 mm 1 m/S 729 mmHg 25%
11:00 +36°C° 0 mm 1 m/S 729 mmHg 21%
12:00 +39°C° 0 mm 1 m/S 729 mmHg 17%
13:00 +40°C° 0 mm 1 m/S 728 mmHg 16%
14:00 +41°C° 0 mm 1 m/S 728 mmHg 16%
15:00 +41°C° 0 mm 2 m/S 727 mmHg 15%
16:00 +40°C° 0 mm 2 m/S 727 mmHg 16%
17:00 +40°C° 0 mm 2 m/S 727 mmHg 17%
18:00 +39°C° 0 mm 2 m/S 726 mmHg 18%
19:00 +35°C° 0.1 mm 2 m/S 726 mmHg 27%
20:00 +31°C° 0.1 mm 2 m/S 726 mmHg 35%
21:00 +27°C° 0.1 mm 2 m/S 726 mmHg 43%
22:00 +25°C° 0.5 mm 2 m/S 726 mmHg 50%
23:00 +24°C° 0.5 mm 2 m/S 727 mmHg 57%
Mehr zeigen